Погода в Кирилловке

Украина / Запорожская область     46°21′56″N   35°20′03″E
темп.,
°C
ветер,
м/с
пор.,
м/с
влажн.,
%
обл.,
%
осадки,
мм/ч
давл.,
гПа
погр.,
м
18 мая, вт
вт1800:00+16юз688579 0.1 1008373
03:00+16юз678427 0.1 1007393
06:00+16юз68828 0.0 1008426
09:00+16ю57855 0.0 1008340
12:00+16ю6983100 0.0 1008261
15:00+17ю9118475 0.3 1007263
18:00+17ю6885100 0.6 1006158
21:00+15юз6883100 2.8 1007452
19 мая, ср
ср1900:00+15ююз8108085 0.1 1006642
03:00+15юз101377100 0.1 1006608
06:00+16зюз1112785 0.4 1006702
09:00+15юз1213740 0.4 1006960
12:00+15юз121479100 0.4 10081120
15:00+15юз131483100 2.1 10091059
18:00+16зюз1315805 0.3 10091065
21:00+16зюз1215785 0.3 10111124
20 мая, чт
чт2000:00+16юз1114810 0.2 1011903
03:00+16зюз912775 0.2 1012604
06:00+16юз67755 0.0 1012347
09:00+16юз33705 0.0 1013236
12:00+17вюв347031 0.0 1012216
15:00+18вюв56715 0.0 1012258
18:00+18в68740 0.0 1011162
21:00+18в8117628 0.0 1011185
21 мая, пт
пт2100:00+17в8148496 0.0 1010242
03:00+17вюв71184100 0.0 1009280
06:00+17в4487100 0.0 1009118
09:00+17в4489100 0.1 1010189
12:00+17всв3487100 0.0 1010198
15:00+17всв3483100 0.0 1010197
18:00+18св23805 0.0 100981
21:00+19с3377100 0.0 100924
22 мая, сб
сб2200:00+18с568112 0.0 100756
03:00+18ссв57914 0.0 100773
06:00+18св69943 0.0 1007135
09:00+18св6993100 0.0 1008165
12:00+17в6894100 0.0 1008166
15:00+18в3394100 0.0 100856
18:00+18всв4492100 0.0 100866
21:00+18в3389100 0.0 100918